User: anonymous   Login
Location: Matrei
(47.1333°N, 11.4500°E)
Time: 17:18:18
(UTC+00:00)
Language:

STARLINK-29 - Orbit

View from above orbital plane
View from above orbital plane
View from above satellite
View from above satellite

Ground track
Ground track

The orbit data is extracted from the following two-line orbital elements,

1 44243C 19029J   20228.26037838  .00036227  00000-0  12531-3 0  2289
2 44243  52.9982 177.1299 0000725  45.6438  66.5011 15.88730279    14
Epoch (UTC): 15 August 2020 06:14:56
Eccentricity: 0.0000725
inclination: 52.9982°
perigee height: 305 km
apogee height: 306 km
right ascension of ascending node: 177.1299°
argument of perigee: 45.6438°
revolutions per day: 15.88730279
mean anomaly at epoch: 66.5011°
orbit number at epoch: 1

The dashed part of the orbit path shows where the satellite is in the earth's shadow,  

DLR